Regional Weather Roundup
Issued by NWS

Home | Current Version | Previous Version | Graphics & Text | Print | Product List | Glossary On
Versions: 1 2 3 4 5 6 7 8 9 10 11 12 13 14 15 16 17 18 19 20 21 22 23 24 25 26 27 28 29 30 31 32 33 34 35 36 37 38 39 40 41 42 43 44 45 46 47 48 49 50
000
ASUS43 KIND 191909
RWRIN

WEATHER ROUNDUP FOR INDIANA
NATIONAL WEATHER SERVICE INDIANAPOLIS IN
300 PM EDT SUN OCT 19 2014

NOTE: "FAIR" INDICATES FEW OR NO CLOUDS BELOW 12,000 FEET WITH NO
SIGNIFICANT WEATHER AND/OR OBSTRUCTIONS TO VISIBILITY.

* - STATION DOES NOT REPORT WEATHER SUCH AS PRECIPITATION OR FOG.

+ - STATION NOT QUALITY CONTROLLED BY THE NATIONAL WEATHER SERVICE.
    USE DATA WITH CAUTION...ESPECIALLY DEWPOINT AND RELATIVE
    HUMIDITY OBSERVATIONS.

INZ001>003-010>013-019-020-192000-
NORTHWEST INDIANA

CITY           SKY/WX    TMP DP  RH WIND       PRES   REMARKS
GARY /AIRPORT/ PTSUNNY   57  37  47 SW9G21    30.13F
KNOX *+        PTSUNNY   54  37  52 SW10      30.13F
LA PORTE +     PTSUNNY   55  41  59 SW13      30.13F
MICHIGAN CITY+ PTSUNNY   52  36  54 SW10G17   30.12F
MONTICELLO +   PTSUNNY   53  40  60 SW10      30.15F
RENSSELAER +   PTSUNNY   55  41  58 S8G18     30.14F
VALPARAISO     PTSUNNY   53  38  56 SW14      30.13F

$$

LMZ046-743>745-192000-
SOUTHERN LAKE MICHIGAN

STATION/POSITION TIME  TEMP WIND        PRES
                       AIR  DIR/SP/G
                 (UTC) (F)  (DEG/KT/KT) (MB)
MICHIGAN CITY    1900   51  180/ 12/ 14   N/A

$$

INZ004-005-014>016-021>024-192000-
NORTH CENTRAL INDIANA

CITY           SKY/WX    TMP DP  RH WIND       PRES   REMARKS
GOSHEN         PTSUNNY   53  39  59 SW13      30.13F
LOGANSPORT +   PTSUNNY   52  36  54 SW8G17    30.16F
PERU/GRISSOM   PTSUNNY   54  41  62 SW7       30.15F
ROCHESTER +    PTSUNNY   55  37  50 SW10      30.15F
SOUTH BEND     CLOUDY    53  37  54 SW15      30.14F
WARSAW +       PTSUNNY   52  36  54 SW6       30.14F

$$

INZ006>009-017-018-025>027-192000-
NORTHEAST INDIANA

CITY           SKY/WX    TMP DP  RH WIND       PRES   REMARKS
ANGOLA *+      SUNNY     52  36  54 SW13      30.13F
AUBURN +       PTSUNNY   52  34  50 SW3       30.15F
FORT WAYNE     CLOUDY    52  35  52 SW6       30.16F
HUNTINGTON +   PTSUNNY   52  38  59 SW6       30.15F HAZE

$$

INZ028-029-035-036-043>045-051>053-192000-
WEST CENTRAL INDIANA

CITY           SKY/WX    TMP DP  RH WIND       PRES   REMARKS
GREENCASTLE +  MOSUNNY   52  37  58 W3        30.18F
LAFAYETTE      MOSUNNY   52  39  61 VRB6      30.17F
TERRE HAUTE    PTSUNNY   54  40  59 SW6       30.19F

$$

INZ030>032-037>040-046>048-054>057-064-065-192000-
CENTRAL INDIANA

CITY           SKY/WX    TMP DP  RH WIND       PRES   REMARKS
CP ATTERBURY + MOSUNNY   55  39  54 CALM      30.19F
COLUMBUS       MOSUNNY   54  41  62 MISG        N/A
FRANKFORT +    HAZE      56  40  56 SW9       30.18F VSB 1
INDIANAPOLIS   PTSUNNY   54  40  59 SW10      30.18F
-EAGLE CREEK   MOSUNNY   55  39  54 MISG      30.17F
KOKOMO *+      PTSUNNY   55  36  47 S8        30.16F
MARION +       PTSUNNY   54  34  47 SW5       30.17F
MT COMFORT *+  MOSUNNY   55  28  35 SW5       30.18F
SHELBYVILLE    MOSUNNY   56  39  53 MISG      30.17F
ZIONSVILLE +   MOSUNNY   55  36  48 SW10      30.17F

$$

INZ033-034-041-042-049-050-058-059-192000-
EAST CENTRAL INDIANA

CITY           SKY/WX    TMP DP  RH WIND       PRES   REMARKS
MUNCIE         PTSUNNY   54  36  50 SW7       30.16F

$$

INZ060-061-067>069-081>083-085>088-192000-
SOUTHWEST INDIANA

CITY           SKY/WX    TMP DP  RH WIND       PRES   REMARKS
EVANSVILLE     SUNNY     57  41  55 VRB5      30.19F
HUNTINGBURG *+ MOSUNNY   55  43  62 W6        30.20F
WASHINGTON +   SUNNY     56  42  58 W6        30.19F

$$

INZ062-063-066-070>080-084-089>092-192000-
SOUTH CENTRAL AND SOUTHEAST INDIANA

CITY           SKY/WX    TMP DP  RH WIND       PRES   REMARKS
BLOOMINGTON    PTSUNNY   55  40  56 VRB6      30.18F

$$



USA.gov is the U.S. government's official web portal to all federal, state and local government web resources and services.